This demonstration page uses our WeatherBlox Daily Observations layout. Learn more.

Left ArrowRight Arrow

34.16533, -84.80231

Hourly Observations for August 3, 2017

Temp ( °F °C ) Dew Point ( °F °C ) Humidity (%) Winds ( mph kmh ) Pressure ( in mb ) Visibility ( mi km ) Precip ( " mm )
12:53 am 00:53 Clear 66 18.9 66 18.9 100 100 Calm 30.08 1019 9 14 0.00 0.00
1:53 am 01:53 Clear 67 19.4 67 19.4 100 100 Calm 30.08 1019 10 16 0.00 0.00
2:53 am 02:53 Clear 67 19.4 67 19.4 100 100 Calm 30.07 1018 10 16 0.00 0.00
3:53 am 03:53 Clear 66 18.9 66 18.9 100 100 Calm 30.06 1018 7 11 0.00 0.00
4:20 am 04:20 Partly Cloudy 66 18.9 66 18.9 100 100 Calm 30.06 1018 7 11 0.00 0.00
4:28 am 04:28 Mostly Cloudy 65 18.3 65 18.3 100 100 Calm 30.06 1018 7 11 0.00 0.00
4:53 am 04:53 Mostly Cloudy 66 18.9 66 18.9 100 100 Calm 30.06 1018 7 11 0.00 0.00
5:44 am 05:44 Partly Cloudy with Mist and Fog 66 18.9 66 18.9 100 100 Calm 30.09 1019 6 10 0.00 0.00
5:53 am 05:53 Mostly Clear with Mist and Fog 66 18.9 66 18.9 100 100 Calm 30.07 1018 6 10 0.00 0.00
6:53 am 06:53 Sunny 66 18.9 66 18.9 100 100 Calm 30.09 1019 8 13 0.00 0.00
7:53 am 07:53 Sunny 67 19.4 67 19.4 100 100 Calm 30.11 1020 7 11 0.00 0.00
8:53 am 08:53 Sunny 71 21.7 70 21.1 96 96 Calm 30.11 1020 8 13 0.00 0.00
9:53 am 09:53 Sunny 74 23.3 71 21.7 91 91 E 3 6 30.11 1020 10 16 0.00 0.00
10:53 am 10:53 Sunny 80 26.7 68 20 67 67 E 6 9 30.10 1019 10 16 0.00 0.00
11:53 am 11:53 Sunny 82 27.8 65 18.3 56 56 Calm 30.10 1019 10 16 0.00 0.00
12:53 pm 12:53 Sunny 84 28.9 64 17.8 51 51 VRB 6 9 30.09 1019 10 16 0.00 0.00
1:53 pm 13:53 Partly Cloudy 84 28.9 63 17.2 49 49 ESE 3 6 30.07 1018 10 16 0.00 0.00
2:53 pm 14:53 Mostly Cloudy 85 29.4 62 16.7 46 46 VRB 3 6 30.06 1018 10 16 0.00 0.00
3:53 pm 15:53 Sunny 85 29.4 69 20.6 59 59 SSW 6 9 30.05 1018 10 16 0.00 0.00
4:53 pm 16:53 Sunny 85 29.4 68 20 57 57 SSW 5 7 30.04 1017 10 16 0.00 0.00
5:53 pm 17:53 Sunny 84 28.9 68 20 59 59 SSE 6 9 30.03 1017 10 16 0.00 0.00
6:53 pm 18:53 Cloudy 81 27.2 70 21.1 69 69 S 7 11 30.03 1017 10 16 0.00 0.00
7:53 pm 19:53 Cloudy 79 26.1 68 20 69 69 SSE 6 9 30.04 1017 10 16 0.00 0.00
8:53 pm 20:53 Cloudy 76 24.4 69 20.6 79 79 S 3 6 30.05 1018 10 16 0.00 0.00
9:53 pm 21:53 Cloudy 75 23.9 69 20.6 82 82 Calm 30.06 1018 10 16 0.00 0.00
10:53 pm 22:53 Mostly Cloudy 73 22.8 68 20 84 84 Calm 30.06 1018 10 16 0.00 0.00
11:53 pm 23:53 Mostly Cloudy 73 22.8 70 21.1 90 90 S 6 9 30.06 1018 10 16 0.00 0.00

Powered by AerisWeather